This is the latest recevied weather packets stored in our database for station/object N5PA. If no packets are shown the sender has not sent any weather packets the latest 10 day(s).
| Time | Temp. | Humidity | Pressure | Rain* | Wind** | Luminosity | Snow |
|---|---|---|---|---|---|---|---|
| 1777988707 | 17.78° C | 74% | 1014 hPa | 0 mm | - | 1007 W/m² | - |
| 1777988406 | 17.78° C | 75% | 1013.9 hPa | 0 mm | - | 1007 W/m² | - |
| 1777988108 | 17.22° C | 75% | 1013.8 hPa | 0 mm | - | 1007 W/m² | - |
| 1777987807 | 16.67° C | 75% | 1013.9 hPa | 0 mm | - | 1009 W/m² | - |
| 1777987505 | 16.67° C | 74% | 1013.9 hPa | 0 mm | - | 1009 W/m² | - |
| 1777987207 | 16.67° C | 73% | 1014 hPa | 0 mm | - | 1009 W/m² | - |
| 1777986906 | 16.11° C | 73% | 1014 hPa | 0 mm | - | 1011 W/m² | - |
| 1777986605 | 16.11° C | 72% | 1014 hPa | 0 mm | - | 1011 W/m² | - |
| 1777986306 | 15.56° C | 68% | 1014.1 hPa | 0 mm | - | 1011 W/m² | - |
| 1777986006 | 15.56° C | 65% | 1014 hPa | 0 mm | - | 1013 W/m² | - |
| 1777985706 | 15° C | 66% | 1013.8 hPa | 0 mm | - | 1013 W/m² | - |
| 1777985406 | 15° C | 65% | 1013.8 hPa | 0 mm | - | 1013 W/m² | - |
| 1777985106 | 14.44° C | 63% | 1013.7 hPa | 0 mm | - | 1014 W/m² | - |
| 1777984806 | 14.44° C | 62% | 1013.7 hPa | 0 mm | - | 1013 W/m² | - |
| 1777984506 | 14.44° C | 60% | 1013.7 hPa | 0 mm | - | 1014 W/m² | - |
| 1777984207 | 14.44° C | 59% | 1013.6 hPa | 0 mm | - | 1014 W/m² | - |
| 1777983906 | 13.89° C | 58% | 1013.7 hPa | 0 mm | - | 1014 W/m² | - |
| 1777983605 | 13.89° C | 58% | 1013.5 hPa | 0 mm | - | 1014 W/m² | - |
| 1777983306 | 13.89° C | 57% | 1013.5 hPa | 0 mm | - | 1014 W/m² | - |
| 1777983006 | 13.33° C | 57% | 1013.5 hPa | 0 mm | - | 1014 W/m² | - |
| 1777982707 | 13.33° C | 56% | 1013.5 hPa | 0 mm | - | 1014 W/m² | - |
| 1777982405 | 13.33° C | 56% | 1013.5 hPa | 0 mm | - | 1014 W/m² | - |
| 1777982106 | 13.33° C | 57% | 1013.5 hPa | 0 mm | - | 1016 W/m² | - |
| 1777981806 | 12.78° C | 57% | 1013.5 hPa | 0 mm | - | 1016 W/m² | - |
| 1777981506 | 12.78° C | 57% | 1013.3 hPa | 0 mm | - | 1014 W/m² | - |
* Rain latest hour (hover to see other rain measurements)
** Current wind speed in m/s (hover to see current wind gust speed)